SCP
3 4 6 8 11 13 10 8 7 6 5 5 5 5 6 6 6 6 5 4 3 3 3 3 3 3 3 2 2 2 1 1 1 1 1 1 1 1 1 1 1 1 1
3 4 6 8 10 10 9 8 8 7 6 6 5 6 7 7 7 7 7 5 4 4 4 4 3 3 3 2 2 2 2 1 1 1 1 1 1 1 1 1 1 1 1
3 4 6 7 7 8 7 8 9 9 9 7 6 6 8 8 8 9 9 8 6 6 5 4 4 3 3 3 2 2 2 1 2 2 1 1 1 1 1 1 1 1 1
3 4 5 6 6 7 7 7 9 10 10 8 7 7 8 9 10 11 12 10 9 7 6 5 4 4 3 3 3 2 2 2 2 2 2 1 1 1 1 1 1 1 1
4 5 6 6 6 6 7 7 8 9 9 8 7 8 9 11 12 14 14 12 10 8 7 5 5 4 4 3 3 3 3 2 2 2 2 2 2 2 2 2 2 2 2
5 6 6 6 6 6 6 7 8 8 7 6 6 7 9 12 15 16 14 12 10 9 7 6 6 6 5 5 4 4 4 3 3 3 3 3 3 2 2 2 2 2 2
6 5 5 5 5 5 6 8 9 9 7 6 5 6 7 10 14 15 14 12 10 9 8 6 6 7 7 6 6 5 5 4 4 3 3 3 3 3 3 2 2 2 2
4 4 3 4 5 4 5 7 9 9 8 7 6 6 6 7 11 13 13 11 10 9 8 6 6 7 8 8 8 8 7 6 5 4 4 4 3 3 3 3 3 2 2
3 4 4 4 4 4 5 6 8 9 8 8 6 6 5 6 8 10 11 10 9 8 7 5 5 6 6 7 8 9 8 7 6 6 5 5 4 4 5 5 4 3 3
4 5 6 5 5 5 5 6 7 8 8 8 7 6 5 5 6 8 9 9 9 8 6 5 5 6 6 6 6 7 7 7 7 7 6 6 6 7 8 8 6 5 4
9 8 7 7 7 5 5 6 7 8 8 8 8 7 6 5 5 7 8 9 8 7 6 5 5 5 5 5 5 5 5 5 6 6 6 6 6 8 11 9 6 5 4
18 11 7 8 9 9 8 6 6 8 8 7 8 8 8 6 6 6 8 8 8 6 4 3 3 3 3 3 3 3 3 3 3 4 4 4 4 5 6 5 4 4 3
21 17 14 14 14 14 12 8 6 8 8 7 7 8 8 8 7 7 8 8 6 5 3 2 2 2 2 2 2 2 2 2 2 2 2 2 2 2 2 2 2 2 2
17 23 25 21 17 13 11 9 7 7 7 7 7 8 8 9 9 9 8 7 5 3 3 2 2 2 2 2 2 2 2 2 2 2 2 2 2 2 2 2 1 1 1
11 20 23 16 11 8 8 9 8 7 6 6 7 8 8 9 10 10 8 6 4 3 3 2 2 3 2 2 2 2 2 2 2 2 2 2 2 2 2 1 1 1 1
6 9 10 8 6 7 8 9 8 7 6 6 7 7 8 8 9 9 7 5 4 3 3 3 3 3 2 1 1 1 1 1 1 1 2 1 1 1 1 1 1 1 1
5 5 6 7 9 10 10 9 8 7 6 7 7 6 7 8 8 7 5 5 4 4 4 3 3 3 2 1 0 1 1 1 1 1 1 1 1 1 1 1 1 1 1
5 5 8 11 12 12 10 9 8 6 6 6 6 6 6 7 7 6 5 5 5 5 4 4 4 4 2 1 0 1 1 1 1 1 1 1 1 1 1 2 2 2 2
5 5 9 14 14 11 10 8 7 6 6 6 6 6 6 7 8 6 5 6 6 6 5 5 5 5 3 1 0 1 1 2 1 1 1 1 1 1 1 2 2 3 3
7 7 9 13 12 9 9 8 7 7 6 6 5 6 7 7 8 7 6 6 7 7 6 6 6 5 3 1 0 0 1 1 2 2 2 1 1 1 1 1 2 2 3
8 8 8 9 8 7 7 8 8 7 7 6 6 7 8 8 7 7 6 7 8 8 8 7 7 6 3 1 0 0 1 1 2 2 2 1 1 0 0 1 2 2 2
9 8 7 7 7 6 7 8 9 9 8 7 8 9 10 9 8 7 7 8 9 9 9 9 8 6 3 1 1 0 0 1 1 2 2 1 0 0 0 0 1 1 1
9 8 7 7 7 7 7 8 9 10 9 10 11 13 13 12 11 10 9 8 8 8 8 9 9 7 4 2 1 0 0 0 1 1 1 1 0 0 0 0 0 1 1
9 8 6 6 6 7 8 8 8 9 10 11 13 15 14 12 12 11 9 7 7 7 7 8 8 7 4 2 2 1 0 0 0 0 0 0 0 0 0 0 0 0 1
9 8 6 5 5 6 6 6 6 7 8 10 12 13 12 10 9 8 6 5 5 4 4 6 6 5 4 2 2 2 1 1 0 1 1 1 1 1 1 1 1 1 1
8 7 6 5 5 5 5 5 5 6 6 8 10 11 9 8 6 6 4 3 3 2 2 3 3 3 2 1 1 2 2 1 1 1 1 2 2 2 2 1 1 2 2
Wind_Speed
7 9 9 10 9 8 7 6 5 4 3 3 2 2 2 2 2 2 3 3 2 2 1 1 1 1 1 1 1 1 0 1 1 1 0 0 2 2 2 2 2 2 2
7 8 9 9 9 8 7 6 5 5 4 2 2 2 2 2 2 2 3 2 1 1 2 2 1 2 1 1 1 0 1 1 1 1 1 1 1 1 2 2 2 2 2
9 9 9 8 9 8 7 6 4 5 4 3 2 2 1 1 2 3 2 1 2 2 2 2 1 1 1 1 0 1 1 1 1 1 0 0 1 1 1 2 2 2 2
8 9 10 9 9 9 8 6 5 4 3 3 3 3 3 2 2 2 2 2 2 2 2 1 1 1 1 1 1 0 1 1 1 1 1 1 0 1 1 1 2 3 2
9 9 9 9 8 8 8 7 6 5 4 3 3 3 2 2 2 2 2 2 2 2 2 2 1 1 1 1 1 1 1 0 1 1 1 1 1 1 1 1 1 1 2
6 7 9 9 7 7 7 7 7 6 5 4 3 3 2 2 2 2 2 2 2 2 2 2 2 1 1 1 0 0 0 1 1 2 1 1 1 1 0 1 1 2 1
4 5 7 9 8 8 7 7 7 6 5 5 4 3 3 3 3 3 3 3 2 2 2 2 2 1 1 1 1 1 1 0 1 1 1 1 1 1 1 0 1 1 1
4 4 5 6 7 7 6 6 7 6 5 5 4 4 3 3 2 2 2 2 1 2 2 2 2 2 2 2 1 1 1 0 1 1 1 1 1 1 1 0 1 1 1
4 4 3 3 6 6 5 5 6 6 6 5 4 3 3 2 2 2 2 1 1 2 3 3 2 2 2 1 1 1 1 0 1 1 1 1 1 1 1 1 1 1 1
3 3 4 3 4 4 5 5 5 6 6 5 4 4 3 3 2 2 1 1 1 1 2 2 2 2 2 1 1 1 1 1 0 0 1 2 1 1 1 1 1 1 1
1 3 3 3 3 4 5 4 5 5 5 5 4 3 4 3 3 2 1 1 1 1 1 1 1 1 1 1 1 1 1 1 1 1 1 1 1 1 2 1 1 1 1
3 4 4 3 2 2 3 4 4 4 4 4 4 3 3 3 3 2 2 2 1 1 1 1 2 2 2 1 1 2 1 1 0 1 1 1 1 1 2 2 2 1 1
3 4 5 4 3 2 1 2 3 4 4 4 4 4 3 3 3 2 2 2 2 2 1 1 1 1 1 1 1 1 1 0 0 0 1 1 1 1 1 2 1 1 1
4 5 5 4 4 3 2 1 1 2 3 3 3 3 3 3 3 3 2 2 2 2 2 2 1 1 1 1 0 0 0 0 0 0 0 1 1 0 1 1 1 2 2
3 4 4 3 3 3 2 1 1 1 1 1 2 3 3 3 3 3 3 2 2 2 2 1 1 1 1 1 0 1 1 1 0 1 0 1 1 1 1 1 1 1 1
2 2 2 2 2 2 2 2 2 1 1 1 2 2 3 3 3 3 3 3 2 2 2 2 2 1 1 1 2 1 1 1 1 1 1 1 1 2 2 1 1 1 2
5 5 4 2 3 1 1 1 0 0 1 1 2 2 3 4 3 3 3 3 2 2 2 2 2 2 1 1 1 1 1 1 1 1 1 2 1 1 1 2 3 2 3
4 4 4 3 2 1 1 1 0 1 1 1 1 1 2 3 3 3 3 2 2 2 2 2 2 2 2 2 2 0 1 1 1 2 2 1 1 2 1 2 2 2 2
4 3 3 3 2 1 2 2 1 1 1 1 1 2 2 2 3 3 3 3 3 2 2 2 2 2 2 2 2 1 2 1 2 2 1 1 1 1 2 2 2 2 2
3 2 3 3 1 1 1 1 2 1 1 1 1 2 2 2 3 3 3 3 2 3 3 2 2 2 3 3 3 2 2 2 1 1 1 1 0 0 0 2 3 3 2
3 2 2 2 1 1 1 1 2 2 2 1 1 1 2 2 3 3 2 2 3 3 2 2 2 2 3 4 4 4 2 2 2 1 1 1 1 1 2 2 3 3 3
3 3 2 2 1 1 1 1 2 2 2 2 2 1 1 2 2 2 2 2 2 2 2 2 2 2 3 3 3 4 4 3 2 2 1 1 2 3 5 4 4 4 4
5 4 4 3 3 2 1 2 1 1 2 1 1 0 0 0 0 1 2 2 1 1 2 2 2 2 1 2 2 4 5 4 2 2 2 2 4 5 5 6 5 4 3
5 4 4 4 4 3 2 1 1 1 1 1 1 1 1 1 1 1 1 1 1 1 1 1 1 1 1 1 1 2 2 3 3 2 2 4 6 5 4 3 4 4 3
5 4 3 3 4 3 2 2 1 0 1 1 1 2 2 2 1 1 1 1 2 1 0 0 0 0 1 1 1 1 1 1 1 1 2 2 2 3 3 3 3 3 2
4 4 4 4 3 3 3 2 2 1 1 1 1 1 1 2 2 2 2 5 3 4 4 3 2 1 1 1 2 2 3 2 2 1 2 2 2 2 3 3 2 2 2
Wind_Direction
149 145 145 142 138 133 136 140 143 138 134 138 154 154 137 124 117 120 114 124 129 119 98 85 83 70 73 47 33 29 240 232 245 265 136 167 147 157 148 150 160 173 166
147 145 149 147 145 143 145 146 153 148 145 143 157 156 141 142 142 118 111 118 105 112 123 103 97 77 84 73 43 36 306 281 237 229 211 152 130 202 177 166 175 174 181
153 155 151 149 148 147 149 153 152 147 155 152 154 141 130 162 138 124 133 149 143 115 75 97 97 103 120 92 48 345 265 281 298 285 265 157 159 180 163 180 178 159 178
163 160 158 157 156 155 152 144 146 145 151 153 167 171 171 179 163 156 155 165 150 137 122 117 99 95 78 87 231 130 280 267 286 295 261 237 188 187 149 185 175 174 180
165 160 160 161 160 157 155 153 149 152 156 164 183 191 193 183 153 137 148 155 152 152 142 147 136 136 117 79 19 30 335 324 303 307 296 298 261 247 163 168 161 170 174
157 163 161 156 155 154 153 152 150 154 162 174 181 185 207 186 161 159 172 178 168 165 153 154 157 174 161 169 195 322 324 1 341 332 330 323 329 316 245 183 179 175 187
148 160 162 158 161 163 162 157 154 161 170 182 185 184 204 202 193 193 200 194 178 166 156 159 168 180 190 210 185 183 272 314 314 317 313 323 307 312 329 319 279 193 182
159 154 163 160 162 165 163 159 157 163 172 183 190 188 195 205 210 212 227 214 176 157 157 169 179 195 213 221 196 204 206 219 284 293 300 299 304 308 309 251 278 285 214
153 152 154 148 154 156 161 165 160 165 173 181 183 181 184 207 205 189 225 208 176 181 171 184 191 206 222 224 220 203 250 249 257 274 287 288 273 284 299 304 275 228 232
135 119 128 129 133 150 159 163 157 161 170 176 183 180 182 194 196 196 208 183 168 143 166 189 191 203 208 208 215 223 203 198 242 274 312 306 298 294 293 293 306 291 229
109 103 101 102 131 163 161 158 159 162 170 173 175 173 175 182 184 186 179 160 129 145 178 189 199 198 201 212 209 234 242 210 252 264 239 270 316 326 315 318 311 307 308
108 100 97 89 91 128 142 144 151 165 165 164 161 164 165 167 177 182 165 150 151 167 181 202 209 207 197 198 219 233 248 206 247 309 319 289 276 298 318 327 324 313 305
87 86 84 76 66 55 81 139 159 159 164 165 164 164 171 171 180 181 168 165 173 180 185 215 223 212 197 207 236 238 242 191 148 257 273 288 315 332 331 315 320 321 323
72 73 62 53 49 38 23 52 159 152 158 159 162 160 175 178 179 177 168 172 170 173 188 211 214 210 207 229 242 218 103 298 144 239 269 350 3 355 306 306 328 319 319
48 70 68 45 41 20 10 35 26 76 102 140 169 171 174 170 171 166 160 163 170 188 185 202 233 235 216 206 115 222 202 206 262 294 19 35 63 49 351 304 315 309 288
72 82 96 79 44 10 351 25 26 31 81 206 211 181 183 175 173 164 161 164 175 191 190 199 208 219 241 90 72 26 281 259 249 257 251 188 190 158 173 204 230 262 259
46 37 38 66 82 28 337 336 354 280 248 220 207 201 180 166 167 176 168 169 175 189 205 188 186 178 129 112 93 40 268 257 259 271 283 277 251 213 208 217 229 235 236
43 43 24 20 30 13 7 347 304 237 229 219 212 199 177 166 168 179 179 176 182 196 203 201 199 175 159 146 121 138 256 243 247 248 249 262 299 307 318 276 252 238 246
35 30 359 350 3 353 2 341 327 300 279 259 217 214 203 189 186 190 193 192 196 202 203 198 198 179 158 168 166 196 234 243 250 248 260 239 239 337 333 289 272 260 254
23 14 349 337 338 359 351 310 299 292 291 292 264 245 222 211 198 196 203 201 198 202 205 195 194 191 160 166 169 189 239 243 247 222 197 138 183 161 268 282 286 276 280
3 349 335 325 330 337 315 287 291 289 295 287 279 276 246 223 207 199 206 198 199 199 201 193 202 192 164 171 183 194 232 254 251 233 212 199 182 201 241 254 260 257 274
350 340 336 335 329 309 276 268 274 290 294 274 262 261 258 249 223 181 192 201 205 193 197 191 200 184 168 173 185 192 219 263 282 278 236 180 204 239 251 251 248 263 280
351 349 344 339 330 314 281 267 274 287 293 287 281 278 277 279 238 180 186 194 199 205 212 203 206 204 177 170 187 199 220 240 261 296 301 249 236 246 247 240 237 245 250
348 348 342 333 322 322 317 312 300 312 302 268 255 216 186 182 179 179 179 177 207 213 235 242 238 216 158 160 182 205 228 237 241 264 270 243 236 243 249 240 233 228 231
342 342 342 328 320 327 336 345 342 278 263 260 245 237 193 168 140 91 40 98 41 38 270 333 341 236 237 248 210 197 227 253 279 291 258 248 225 227 231 230 223 223 225
339 340 341 335 327 331 346 354 349 315 258 242 247 245 201 157 142 124 81 53 76 85 81 87 88 69 115 167 194 204 209 208 180 202 255 250 241 244 247 249 243 225 224